Skip Page Navigation
NASA JPL Caltech
NASA Logo - Jet Propulsion Laboratory + View the NASA Portal
+ Center for Near-Earth Object Studies
JPL Home Earth Solar System Stars & Galaxies Technology
JPL Solar System Dynamics
BODIES ORBITS EPHEMERIDES TOOLS PHYSICAL DATA DISCOVERY FAQ SITE MAP
JPL Small-Body Database Browser
Search: [ help ]  
332435 (2007 VE10)
Classification: Main-belt Asteroid          SPK-ID: 2332435
Ephemeris | Orbit Diagram | Orbital Elements | Mission Design | Physical Parameters | Discovery Circumstances | Close-Approach Data ]

[ show orbit diagram ]
Orbital Elements at Epoch 2459000.5 (2020-May-31.0) TDB
Reference: JPL 14 (heliocentric ecliptic J2000)
 Element Value Uncertainty (1-sigma)   Units 
e .2402372075076092 6.9712e-08  
a 3.185508589700584 3.7944e-08 au
q 2.420230901619413 2.3613e-07 au
i 14.04060619212593 6.5026e-06 deg
node 236.2859456044426 2.9807e-05 deg
peri 134.3621436672397 3.3441e-05 deg
M 96.10184970911676 1.3001e-05 deg
tp 2458446.134948349024
(2018-Nov-23.63494835)
7.3036e-05 TDB
period 2076.665737427725
5.69
3.7104e-05
1.016e-07
d
yr
n .173354812722974 3.0974e-09 deg/d
Q 3.950786277781754 4.7059e-08 au
  Orbit Determination Parameters
   # obs. used (total)      272  
   data-arc span      6338 days (17.35 yr)  
   first obs. used      2001-09-29  
   last obs. used      2019-02-05  
   planetary ephem.      DE431  
   SB-pert. ephem.      SB431-N16  
   condition code      0  
   norm. resid. RMS      .55934  
   source      ORB  
   producer      Otto Matic  
   solution date      2020-Feb-25 21:08:34  

Additional Information
 Earth MOID = 1.44501 au 
 Jupiter MOID = 1.67323 au 
 T_jup = 3.107 
[ show covariance matrix ]

Ephemeris | Orbit Diagram | Orbital Elements | Mission Design | Physical Parameters | Discovery Circumstances | Close-Approach Data ]

Physical Parameter Table
Parameter Symbol Value Units Sigma Reference Notes
absolute magnitude H 15.7   n/a MPO471447  

332435 (2007 VE10)          Discovered 2007-Oct-08 by CSS at Catalina
Reference: 20120703/Numbers.arcLast Updated: 2012-07-09

[ show close-approach data ]
Ephemeris | Orbit Diagram | Orbital Elements | Mission Design | Physical Parameters | Discovery Circumstances | Close-Approach Data ]
ABOUT SSD CREDITS/AWARDS PRIVACY/COPYRIGHT GLOSSARY LINKS
FirstGov 2020-Sep-24 16:20 UT
(server date/time)  
NASA Home Page
Site Manager:   Ryan S. Park
Webmaster  Alan B. Chamberlin